Flag for Luxembourg Weather past 2 weeks in Luxembourg, Luxembourg

Now
66 °F

Clear.


Feels Like: 66 °F
Forecast: 59 / 72 °F
Wind: 3 mph from East

Location: Luxembourg Airport

Current Time: Aug 3, 2015 at 5:20:40 AM

Latest Report: Aug 3, 2015 at 4:50 AM


Visibility: 10 mi

Pressure: 30.04 "Hg

Humidity: 52%

Dew point: 48 °F

Location of LuxembourgLocation

Historic Weather in Luxembourg — Graph

°F

Luxembourg temperature yesterday

Maximum temperature yesterday: 82 °F (at 4:50 PM)
Minimum temperature yesterday: 54 °F (at 6:20 AM)
Average temperature yesterday: 71 °F

Past Weeks' High & Low Weather Summary

 TemperatureHumidityPressure
High86 °F (Jul 21, 4:50 PM)100% (Jul 19, 7:50 AM)30.12 "Hg (Jul 19, 7:50 AM)
Low46 °F (Jul 30, 4:50 AM)25% (Aug 2, 5:20 PM)29.62 "Hg (Jul 27, 4:20 AM)
Average64 °F67%29.94 "Hg
* Reported Jul 19 3:20 AM — Aug 3 3:50 AM, Luxembourg, Weather by CustomWeather, © 2015

Note: Actual official high and low records may vary slightly from our data, if they occured in-between our weather recording intervals... More about our weather records

Advertising

Luxembourg weather history for previous 24 hours

 ConditionsComfort  
Time TempWeatherWind HumidityBarometerVisibility
3:50 AM
Mon, Aug 3
66 °FClear.2 mph52%30.04 "Hg10 mi
3:20 AM68 °FClear.2 mph49%30.04 "Hg10 mi
2:50 AM66 °FClear.1 mph56%30.04 "Hg10 mi
2:20 AM70 °FClear.2 mph43%30.04 "Hg10 mi
1:50 AM70 °FClear.3 mph46%30.04 "Hg10 mi
1:20 AM70 °FClear.3 mph46%30.04 "Hg10 mi
12:50 AM70 °FPassing clouds.5 mph46%30.04 "HgN/A
12:20 AM72 °FPassing clouds.5 mph44%30.04 "HgN/A
11:50 PM
Sun, Aug 2
73 °FClear.5 mph41%30.07 "Hg10 mi
11:20 PM73 °FClear.3 mph41%30.07 "Hg10 mi
10:50 PM73 °FClear.3 mph41%30.04 "Hg10 mi
10:20 PM73 °FClear.3 mph38%30.04 "Hg10 mi
9:50 PM73 °FSunny.3 mph38%30.04 "Hg10 mi
9:20 PM77 °FSunny.3 mph32%30.04 "Hg10 mi
8:50 PM79 °FSunny.3 mph32%30.04 "Hg10 mi
8:20 PM81 °FSunny.2 mph30%30.04 "Hg10 mi
7:50 PM81 °FSunny.3 mph28%30.04 "Hg10 mi
7:20 PM81 °FPassing clouds.6 mph28%30.04 "HgN/A
6:50 PM82 °FPassing clouds.5 mph26%30.04 "HgN/A
6:20 PM82 °FSunny.6 mph26%30.07 "Hg10 mi
5:50 PM82 °FPassing clouds.8 mph26%30.07 "HgN/A
5:20 PM82 °FPassing clouds.6 mph25%30.07 "HgN/A
4:50 PM82 °FSunny.5 mph26%30.07 "Hg10 mi
4:20 PM81 °FPassing clouds.6 mph26%30.07 "HgN/A
3:50 PM81 °FPassing clouds.7 mph26%30.09 "HgN/A
3:20 PM81 °FPassing clouds.7 mph28%30.09 "HgN/A
2:50 PM79 °FSunny.6 mph30%30.09 "Hg10 mi
2:20 PM79 °FSunny.5 mph28%30.09 "Hg10 mi
1:50 PM79 °FSunny.5 mph32%30.12 "Hg10 mi
1:20 PM77 °FPassing clouds.7 mph34%30.12 "HgN/A
12:50 PM75 °FPassing clouds.6 mph39%30.12 "HgN/A
12:20 PM75 °FPassing clouds.7 mph39%30.12 "HgN/A
11:50 AM73 °FSunny.5 mph44%30.12 "Hg10 mi
11:20 AM73 °FPassing clouds.6 mph44%30.12 "HgN/A
10:50 AM72 °FPassing clouds.7 mph47%30.12 "HgN/A
10:20 AM70 °FPassing clouds.8 mph50%30.12 "HgN/A
9:50 AM68 °FPassing clouds.7 mph53%30.12 "HgN/A
9:20 AM68 °FSunny.7 mph53%30.12 "Hg10 mi
8:50 AM66 °FPassing clouds.6 mph56%30.12 "HgN/A
8:20 AM64 °FPassing clouds.7 mph56%30.12 "HgN/A
7:50 AM63 °FSunny.8 mph59%30.12 "Hg10 mi
7:20 AM61 °FPassing clouds.7 mph63%30.12 "HgN/A
6:50 AM59 °FPassing clouds.6 mph68%30.09 "HgN/A
6:20 AM54 °FClear.5 mph82%30.09 "Hg10 mi
5:50 AM57 °FClear.7 mph72%30.09 "Hg10 mi
5:20 AM59 °FClear.7 mph63%30.09 "Hg10 mi
Weather by CustomWeather, © 2015

See weather overviewHow to use our weather pages